Pinedale, WY

4:21 PM MDT on March 23, 2017 (GMT -0600)
Wenz

Weather History for KPNA - January, 2014

Change the Weather History Date:

Monday, January 13, 2014

  Actual Average (KBPI) Record (KBPI)
Temperature  
Mean Temperature 22 °F -  
Max Temperature 30 °F 22 °F 42 °F (1994)
Min Temperature 14 °F 0 °F -30 °F (2013)
Degree Days  
Heating Degree Days 43    
Moisture  
Dew Point 21 °F    
Average Humidity 85    
Maximum Humidity 100    
Minimum Humidity 74    
Precipitation  
Precipitation 0.00 in - - ()
Sea Level Pressure  
Sea Level Pressure 30.13 in    
Wind  
Wind Speed 10 mph (NW)    
Max Wind Speed 36 mph    
Max Gust Speed 43 mph    
Visibility 8 miles    
Events Snow    
Averages and records for this station are not official NWS values.
T = Trace of Precipitation, MM = Missing Value Source: NWS Daily Summary

Daily Weather History Graph

Daily Weather History Graph

Search for Another Location

Airport or City:

Trip Planner

Search our weather history database for the weather conditions in past years. The results will help you decide how hot, cold, wet, or windy it might be!

Date:

Astronomy

Jan. 13, 2014 Rise Set
Actual Time 7:47 AM MST 5:08 PM MST
Civil Twilight 7:16 AM MST 5:39 PM MST
Nautical Twilight 6:41 AM MST 6:14 PM MST
Astronomical Twilight 6:07 AM MST 6:48 PM MST
Moon 3:26 PM MST (1/13) 5:39 AM MST (1/13)
Length of Visible Light 10h 23m
Length of Day
9h 20m
Waxing Gibbous, 95% of the Moon is Illuminated
Jan 13
Waxing Gibbous
Jan 15
Full
Jan 23
Last Quarter
Jan 30
New
Feb 6
First Quarter

Hourly Weather History & Observations

Time (MST) Temp. Windchill Dew Point Humidity Pressure Visibility Wind Dir Wind Speed Gust Speed Precip Events Conditions
12:15 AM 19.4 °F 8.6 °F 17.6 °F 93% 30.06 in 10.0 mi WNW 9.2 mph - N/A   Overcast
12:35 AM 19.4 °F 10.4 °F 17.6 °F 93% 30.06 in 10.0 mi WNW 6.9 mph - N/A Snow Light Snow
12:55 AM 19.4 °F 11.5 °F 17.6 °F 93% 30.06 in 5.0 mi West 5.8 mph - N/A Snow Light Snow
1:15 AM 19.4 °F - 17.6 °F 93% 30.07 in 10.0 mi Calm Calm - N/A   Overcast
1:35 AM 19.4 °F - 17.6 °F 93% 30.07 in 10.0 mi Calm Calm - N/A   Overcast
1:55 AM 19.4 °F - 19.4 °F 100% 30.07 in 7.0 mi Calm Calm - N/A Snow Light Snow
2:15 AM 19.4 °F 14.3 °F 17.6 °F 93% 30.07 in 10.0 mi West 3.5 mph - N/A   Overcast
2:35 AM 17.6 °F 12.3 °F 17.6 °F 100% 30.08 in 10.0 mi WSW 3.5 mph - N/A Snow Light Snow
2:55 AM 19.4 °F - 17.6 °F 93% 30.09 in 3.0 mi Calm Calm - N/A Snow Light Snow
3:15 AM 19.4 °F 12.8 °F 19.4 °F 100% 30.08 in 5.0 mi West 4.6 mph - N/A Snow Light Snow
3:35 AM 19.4 °F 12.8 °F 19.4 °F 100% 30.08 in 5.0 mi WSW 4.6 mph - N/A Snow Light Snow
3:55 AM 21.2 °F 16.4 °F 19.4 °F 93% 30.09 in 10.0 mi ENE 3.5 mph - N/A   Overcast
4:15 AM 19.4 °F - 19.4 °F 100% 30.09 in 10.0 mi Calm Calm - N/A   Overcast
4:35 AM 19.4 °F - 17.6 °F 93% 30.11 in 10.0 mi Calm Calm - N/A   Mostly Cloudy
4:55 AM 14.0 °F - 14.0 °F 100% 30.09 in 10.0 mi Calm Calm - N/A   Scattered Clouds
5:15 AM 14.0 °F 1.2 °F 14.0 °F 100% 30.09 in 10.0 mi WNW 10.4 mph - N/A   Scattered Clouds
5:35 AM 15.8 °F - 14.0 °F 93% 30.11 in 10.0 mi Calm Calm - N/A   Scattered Clouds
5:55 AM 19.4 °F - 17.6 °F 93% 30.11 in 10.0 mi Calm Calm - N/A   Scattered Clouds
6:15 AM 19.4 °F - 19.4 °F 100% 30.10 in 10.0 mi Calm Calm - N/A   Mostly Cloudy
6:35 AM 19.4 °F 8.6 °F 19.4 °F 100% 30.09 in 10.0 mi NNW 9.2 mph - N/A Snow Light Snow
6:55 AM 19.4 °F 6.0 °F 19.4 °F 100% 30.08 in 10.0 mi WNW 13.8 mph - N/A   Mostly Cloudy
7:15 AM 23.0 °F 9.2 °F 21.2 °F 93% 30.08 in 10.0 mi WNW 17.3 mph - N/A   Clear
7:35 AM 23.0 °F 11.1 °F 21.2 °F 93% 30.09 in 10.0 mi NW 12.7 mph - N/A   Clear
7:55 AM 19.4 °F 7.2 °F 19.4 °F 100% 30.10 in 10.0 mi WNW 11.5 mph - N/A   Clear
8:15 AM 21.2 °F 10.9 °F 21.2 °F 100% 30.11 in 10.0 mi WNW 9.2 mph - N/A Snow Light Snow
8:35 AM 21.2 °F 11.7 °F 19.4 °F 93% 30.11 in 10.0 mi West 8.1 mph - N/A   Scattered Clouds
8:55 AM 23.0 °F - 21.2 °F 93% 30.12 in 10.0 mi Calm Calm - N/A   Scattered Clouds
9:15 AM 21.2 °F 11.7 °F 21.2 °F 100% 30.13 in 10.0 mi SE 8.1 mph - N/A   Mostly Cloudy
9:35 AM 23.0 °F 18.4 °F 21.2 °F 93% 30.11 in 10.0 mi West 3.5 mph - N/A   Scattered Clouds
9:55 AM 28.4 °F 14.4 °F 24.8 °F 86% 30.11 in 5.0 mi WNW 23.0 mph 26.5 mph N/A   Clear
10:15 AM 30.2 °F 15.4 °F 23.0 °F 75% 30.11 in 2.5 mi WNW 28.8 mph 34.5 mph N/A   Haze
10:35 AM 30.2 °F 15.2 °F 23.0 °F 75% 30.12 in 2.0 mi WNW 29.9 mph 36.8 mph N/A   Haze
10:55 AM 30.2 °F 15.7 °F 23.0 °F 75% 30.11 in 2.0 mi WNW 27.6 mph 34.5 mph N/A   Haze
11:15 AM 30.2 °F 15.2 °F 23.0 °F 75% 30.12 in 2.0 mi WNW 29.9 mph 34.5 mph N/A   Haze
11:35 AM 30.2 °F 14.1 °F 23.0 °F 75% 30.11 in 1.5 mi NW 35.7 mph 42.6 mph N/A   Haze
11:55 AM 30.2 °F 15.2 °F 23.0 °F 75% 30.10 in 1.5 mi NW 29.9 mph 40.3 mph N/A   Haze
12:15 PM 30.2 °F 14.7 °F 24.8 °F 80% 30.09 in 0.8 mi WNW 32.2 mph 41.4 mph N/A Snow Light Snow
12:35 PM 30.2 °F 14.9 °F 24.8 °F 80% 30.09 in 1.0 mi NW 31.1 mph 38.0 mph N/A   Haze
12:55 PM 30.2 °F 15.2 °F 24.8 °F 80% 30.09 in 1.8 mi NW 29.9 mph 34.5 mph N/A   Haze
1:15 PM 30.2 °F 14.9 °F 24.8 °F 80% 30.09 in 1.2 mi NW 31.1 mph 38.0 mph N/A   Haze
1:35 PM 30.2 °F 15.4 °F 23.0 °F 75% 30.09 in 1.8 mi NW 28.8 mph 38.0 mph N/A   Haze
1:55 PM 30.2 °F 16.2 °F 23.0 °F 75% 30.10 in 7.0 mi NW 25.3 mph 32.2 mph N/A   Clear
2:15 PM 30.2 °F 15.7 °F 23.0 °F 75% 30.10 in 5.0 mi NW 27.6 mph 34.5 mph N/A   Haze
2:35 PM 30.2 °F 17.8 °F 23.0 °F 75% 30.11 in 7.0 mi NNW 19.6 mph 31.1 mph N/A   Clear
2:55 PM 30.2 °F 15.9 °F 23.0 °F 75% 30.11 in 7.0 mi NW 26.5 mph 32.2 mph N/A   Clear
3:15 PM 30.2 °F 16.2 °F 23.0 °F 75% 30.11 in 5.0 mi NW 25.3 mph 29.9 mph N/A   Haze
3:35 PM 30.2 °F 18.9 °F 23.0 °F 75% 30.13 in 10.0 mi NNW 16.1 mph 27.6 mph N/A   Clear
3:55 PM 30.2 °F 17.8 °F 23.0 °F 75% 30.15 in 10.0 mi North 19.6 mph 26.5 mph N/A   Clear
4:15 PM 28.4 °F 15.1 °F 23.0 °F 80% 30.16 in 10.0 mi NW 20.7 mph 27.6 mph N/A   Clear
4:35 PM 28.4 °F 17.0 °F 21.2 °F 74% 30.16 in 10.0 mi NNW 15.0 mph - N/A   Clear
4:55 PM 28.4 °F 17.0 °F 21.2 °F 74% 30.18 in 10.0 mi NNW 15.0 mph 19.6 mph N/A   Mostly Cloudy
5:15 PM 28.4 °F 19.1 °F 21.2 °F 74% 30.18 in 10.0 mi NNW 10.4 mph - N/A   Scattered Clouds
5:35 PM 28.4 °F 18.0 °F 21.2 °F 74% 30.19 in 10.0 mi NNW 12.7 mph - N/A   Clear
5:55 PM 28.4 °F 17.0 °F 21.2 °F 74% 30.19 in 10.0 mi NW 15.0 mph - N/A   Scattered Clouds
6:15 PM 26.6 °F 16.2 °F 21.2 °F 80% 30.18 in 10.0 mi WNW 11.5 mph - N/A   Scattered Clouds
6:35 PM 23.0 °F 15.8 °F 19.4 °F 86% 30.18 in 10.0 mi West 5.8 mph - N/A   Scattered Clouds
6:55 PM 23.0 °F 17.0 °F 19.4 °F 86% 30.20 in 10.0 mi North 4.6 mph - N/A   Scattered Clouds
7:15 PM 23.0 °F 14.7 °F 19.4 °F 86% 30.20 in 10.0 mi North 6.9 mph - N/A   Mostly Cloudy
7:35 PM 26.6 °F 17.5 °F 21.2 °F 80% 30.20 in 10.0 mi NNW 9.2 mph - N/A   Overcast
7:55 PM 26.6 °F 19.1 °F 21.2 °F 80% 30.20 in 10.0 mi WNW 6.9 mph - N/A   Overcast
8:15 PM 26.6 °F 20.0 °F 21.2 °F 80% 30.20 in 10.0 mi WNW 5.8 mph - N/A   Overcast
8:35 PM 28.4 °F 23.3 °F 21.2 °F 74% 30.21 in 10.0 mi SSW 4.6 mph - N/A   Overcast
8:55 PM 28.4 °F 21.2 °F 21.2 °F 74% 30.21 in 10.0 mi WNW 6.9 mph - N/A   Overcast
9:15 PM 28.4 °F 19.7 °F 21.2 °F 74% 30.21 in 10.0 mi WNW 9.2 mph - N/A   Overcast
9:35 PM 28.4 °F 20.4 °F 21.2 °F 74% 30.22 in 10.0 mi WNW 8.1 mph - N/A   Overcast
9:55 PM 26.6 °F 17.5 °F 19.4 °F 74% 30.22 in 10.0 mi West 9.2 mph - N/A   Scattered Clouds
10:15 PM 26.6 °F 15.7 °F 21.2 °F 80% 30.23 in 10.0 mi WNW 12.7 mph - N/A   Scattered Clouds
10:35 PM 26.6 °F 16.8 °F 21.2 °F 80% 30.23 in 10.0 mi NW 10.4 mph - N/A   Scattered Clouds
10:55 PM 24.8 °F 13.4 °F 21.2 °F 86% 30.23 in 10.0 mi NW 12.7 mph - N/A   Scattered Clouds
11:15 PM 26.6 °F 13.4 °F 21.2 °F 80% 30.23 in 10.0 mi WNW 18.4 mph - N/A   Scattered Clouds
11:35 PM 28.4 °F 15.4 °F 21.2 °F 74% 30.25 in 10.0 mi WNW 19.6 mph - N/A   Mostly Cloudy
11:55 PM 28.4 °F 15.4 °F 21.2 °F 74% 30.24 in 10.0 mi West 19.6 mph - N/A   Mostly Cloudy